OPTUS D2

Last updated on Oct. 31, 2020, 5:53 a.m. UTC

1 32252U 07044A   20304.89572469 -.00000177  00000-0  00000-0 0  9994
2 32252   0.0178 274.7007 0003752 298.8321 300.6199  1.00273288 47964
UTC
Height (km)
Latitude
Longitude
Inclination
Orbital Period
UTC large
Height (km)
Speed (km/s)
/
Latitude / Longitude
Inclination (degrees)
Orbital Period (minutes)
Azimuth
Elevation
Range (km)
Doppler Factor
iOS Compass Heading
iOS Angle

Next 30 passes for location: Hong Kong

Rise time Rise Azimuth (degrees) Set time Set Azimuth (degrees) Duration Max altitude (degrees)

No matching passes for this satellites